Change the Weather History Date:

Friday, June 14, 2013

  Actual Average Record
Temperature  
Mean Temperature 71 °F 64 °F  
Max Temperature 82 °F 77 °F 98 °F (1959)
Min Temperature 59 °F 52 °F 35 °F (1969)
Degree Days  
Heating Degree Days 0 3  
Month to date heating degree days 81 61  
Since 1 June heating degree days 81 61  
Since 1 July heating degree days 8925 8526  
Cooling Degree Days 6 2  
Month to date cooling degree days 12 24  
Year to date cooling degree days 24 41  
Since 1 June cooling degree days 12 24  
Growing Degree Days 20 (Base 50)    
Moisture  
Dew Point 56 °F    
Average Humidity 62    
Maximum Humidity 87    
Minimum Humidity 36    
Precipitation  
Precipitation 0.04 in 0.10 in 1.94 in (1970)
Month to date precipitation 1.10 1.45  
Year to date precipitation 11.70 6.92  
Snow  
Snow 0.00 in 0.00 in 0.00 in (2002)
Month to date snowfall 0.0 0.0  
Since 1 June snowfall 0.0 0.0  
Since 1 July snowfall 57.3 51.2  
Snow Depth 0.00 in    
Sea Level Pressure  
Sea Level Pressure 29.82 in    
Wind  
Wind Speed 12 mph (SW)    
Max Wind Speed 23 mph    
Max Gust Speed 30 mph    
Visibility 10 miles    
Events Rain    
T = Trace of Precipitation, MM = Missing Value Source: NWS Daily Summary

Daily Weather History Graph

Daily Weather History Graph

Search for Another Location

Airport or City:

Trip Planner

Search our weather history database for the weather conditions in past years. The results will help you decide how hot, cold, wet, or windy it might be!

Date:

Astronomy

Jun. 14, 2013 Rise Set
Actual Time 5:48 AM CDT 9:38 PM CDT
Civil Twilight 5:08 AM CDT 10:18 PM CDT
Nautical Twilight 4:15 AM CDT 11:11 PM CDT
Astronomical Twilight 2:56 AM CDT 12:30 AM CDT
Moon 11:44 AM CDT (6/14) 12:28 AM CDT (6/14)
Length of Visible Light 17h 09m
Length of Day
15h 50m
Waxing Crescent, 30% of the Moon is Illuminated
Jun 14
Waxing Crescent
Jun 16
First Quarter
Jun 23
Full
Jun 29
Last Quarter
Jul 8
New

Hourly Weather History & Observations

Time (CDT) Temp. Heat Index Dew Point Humidity Pressure Visibility Wind Dir Wind Speed Gust Speed Precip Events Conditions
12:52 AM 64.9 °F - 55.0 °F 70% 29.90 in 10.0 mi ESE 6.9 mph - N/A   Clear
1:52 AM 60.1 °F - 55.0 °F 83% 29.88 in 10.0 mi ENE 6.9 mph - N/A   Clear
2:52 AM 60.1 °F - 55.0 °F 83% 29.85 in 10.0 mi NE 6.9 mph - N/A   Clear
3:52 AM 59.0 °F - 55.0 °F 87% 29.84 in 10.0 mi ENE 8.1 mph - N/A   Clear
4:52 AM 59.0 °F - 55.0 °F 87% 29.81 in 10.0 mi East 8.1 mph - N/A   Clear
5:52 AM 62.1 °F - 54.0 °F 75% 29.77 in 10.0 mi SE 13.8 mph 21.9 mph N/A   Clear
6:52 AM 64.0 °F - 55.0 °F 73% 29.85 in 10.0 mi West 5.8 mph - N/A   Clear
7:52 AM 62.1 °F - 57.0 °F 84% 29.85 in 10.0 mi SSE 13.8 mph - 0.02 in Rain Light Rain
8:52 AM 64.0 °F - 57.0 °F 78% 29.74 in 10.0 mi SE 17.3 mph 26.5 mph 0.02 in   Partly Cloudy
9:52 AM 66.9 °F - 57.0 °F 70% 29.80 in 10.0 mi South 15.0 mph - N/A   Clear
10:52 AM 70.0 °F - 59.0 °F 68% 29.77 in 10.0 mi SSE 13.8 mph 20.7 mph N/A   Partly Cloudy
11:48 AM 73.4 °F - 60.8 °F 65% 29.78 in 10.0 mi South 6.9 mph - N/A   Mostly Cloudy
11:52 AM 72.0 °F - 60.1 °F 66% 29.77 in 10.0 mi SSE 10.4 mph - N/A   Mostly Cloudy
12:21 PM 73.9 °F - 60.1 °F 62% 29.79 in 10.0 mi SSW 13.8 mph - N/A   Scattered Clouds
12:52 PM 75.9 °F - 61.0 °F 60% 29.77 in 10.0 mi South 11.5 mph - N/A   Mostly Cloudy
1:06 PM 75.9 °F - 61.0 °F 60% 29.79 in 10.0 mi SSW 13.8 mph - N/A   Mostly Cloudy
1:26 PM 77.0 °F - 61.0 °F 58% 29.80 in 10.0 mi SW 13.8 mph - N/A   Scattered Clouds
1:52 PM 77.0 °F - 62.1 °F 60% 29.77 in 10.0 mi WSW 13.8 mph - N/A   Scattered Clouds
2:52 PM 79.0 °F - 63.0 °F 58% 29.77 in 10.0 mi West 9.2 mph - N/A   Mostly Cloudy
3:52 PM 80.1 °F 80.9 °F 60.1 °F 50% 29.78 in 10.0 mi NW 13.8 mph 23.0 mph N/A   Mostly Cloudy
4:52 PM 81.0 °F 80.8 °F 55.9 °F 42% 29.79 in 10.0 mi WNW 16.1 mph 25.3 mph N/A   Partly Cloudy
5:52 PM 80.1 °F 79.9 °F 53.1 °F 39% 29.81 in 10.0 mi NW 20.7 mph 27.6 mph N/A   Clear
6:52 PM 78.1 °F - 52.0 °F 40% 29.81 in 10.0 mi NW 20.7 mph 27.6 mph N/A   Clear
7:52 PM 77.0 °F - 51.1 °F 40% 29.82 in 10.0 mi NW 9.2 mph 19.6 mph N/A   Clear
8:52 PM 75.0 °F - 46.0 °F 36% 29.83 in 10.0 mi WNW 13.8 mph 25.3 mph N/A   Clear
9:52 PM 70.0 °F - 52.0 °F 53% 29.86 in 10.0 mi WNW 10.4 mph - N/A   Clear
10:52 PM 66.9 °F - 48.0 °F 51% 29.91 in 10.0 mi West 11.5 mph - N/A   Partly Cloudy
11:52 PM 63.0 °F - - N/A% 29.93 in 10.0 mi West 10.4 mph - N/A   Mostly Cloudy